Erie, PA

10:00 PM EDT on October 13, 2019 (GMT -0400)
Erie International

Weather History for KERI - August, 2019

Change the Weather History Date:

Tuesday, August 27, 2019

  Actual Average Record
Temperature  
Mean Temperature 70 °F 69 °F  
Max Temperature 75 °F 78 °F 92 °F (1948)
Min Temperature 64 °F 61 °F 47 °F (1954)
Degree Days  
Heating Degree Days 0 1  
Month to date heating degree days 0 2  
Since 1 June heating degree days 38 70  
Since 1 July heating degree days 0 9  
Cooling Degree Days 5 5  
Month to date cooling degree days 209 165  
Year to date cooling degree days 674 540  
Since 1 June cooling degree days 641 501  
Growing Degree Days 20 (Base 50)    
Moisture  
Dew Point 64 °F    
Average Humidity 80    
Maximum Humidity 90    
Minimum Humidity 59    
Precipitation  
Precipitation 0.41 in 0.11 in 1.36 in (1987)
Month to date precipitation 3.82 3.03  
Year to date precipitation 26.32 25.39  
Snow  
Snow 0.00 in 0.00 in - ()
Month to date snowfall 0.0 0.0  
Since 1 June snowfall 0.0 0.0  
Since 1 July snowfall 0.0 0.0  
Snow Depth 0.00 in    
Sea Level Pressure  
Sea Level Pressure 29.86 in    
Wind  
Wind Speed 13 mph ()    
Max Wind Speed 24 mph    
Max Gust Speed 32 mph    
Visibility 7.6 miles    
Events Rain    
T = Trace of Precipitation, MM = Missing Value Source: Averaged Metar Reports

Daily Weather History Graph

Daily Weather History Graph

Search for Another Location

Airport or City:

Astronomy

Aug. 27, 2019 Rise Set
Actual Time 6:40 AM EDT 8:03 PM EDT
Civil Twilight 6:11 AM EDT 8:32 PM EDT
Nautical Twilight 5:36 AM EDT 9:06 PM EDT
Astronomical Twilight 4:59 AM EDT 9:43 PM EDT
Moon 2:59 AM EDT (8/27) 6:25 PM EDT (8/27)
Length of Visible Light 14h 20m
Length of Day
13h 22m
Waning Crescent, 11% of the Moon is Illuminated
Aug 27
Waning Crescent
Aug 30
New
Sep 5
First Quarter
Sep 14
Full
Sep 21
Last Quarter

Hourly Weather History & Observations

Time (EDT) Temp. Dew Point Humidity Pressure Visibility Wind Dir Wind Speed Gust Speed Precip Events Conditions
12:51 AM 70.0 °F 55.0 °F 59% 29.94 in 10.0 mi South 11.5 mph - 0.00 in   Mostly Cloudy
1:51 AM 70.0 °F 55.9 °F 61% 29.93 in 10.0 mi South 13.8 mph - N/A   Overcast
2:51 AM 69.1 °F 57.0 °F 65% 29.91 in 10.0 mi SSE 15.0 mph 24.2 mph 0.00 in   Overcast
3:51 AM 68.0 °F 57.9 °F 70% 29.89 in 10.0 mi South 19.6 mph 27.6 mph 0.00 in   Overcast
4:51 AM 66.9 °F 57.9 °F 73% 29.88 in 10.0 mi South 19.6 mph 28.8 mph N/A   Overcast
5:51 AM 66.9 °F 59.0 °F 76% 29.87 in 10.0 mi South 20.7 mph 29.9 mph N/A   Overcast
6:51 AM 64.9 °F 60.1 °F 84% 29.89 in 9.0 mi South 17.3 mph 24.2 mph 0.00 in Rain Light Rain
7:51 AM 64.9 °F 60.1 °F 84% 29.88 in 10.0 mi SSE 16.1 mph - 0.00 in   Mostly Cloudy
8:51 AM 66.9 °F 61.0 °F 81% 29.88 in 10.0 mi SSE 19.6 mph 27.6 mph N/A   Overcast
9:51 AM 71.1 °F 62.1 °F 73% 29.86 in 10.0 mi South 21.9 mph 29.9 mph N/A   Mostly Cloudy
10:51 AM 70.0 °F 62.1 °F 76% 29.86 in 10.0 mi SSE 19.6 mph 26.5 mph N/A   Overcast
11:22 AM 72.0 °F 63.0 °F 73% 29.88 in 10.0 mi South 17.3 mph 27.6 mph N/A   Mostly Cloudy
11:46 AM 73.4 °F 64.4 °F 73% 29.87 in 10.0 mi South 17.3 mph 26.5 mph N/A   Scattered Clouds
11:51 AM 73.0 °F 63.0 °F 71% 29.86 in 10.0 mi South 15.0 mph 26.5 mph N/A   Mostly Cloudy
12:16 PM 73.9 °F 64.0 °F 71% 29.87 in 10.0 mi South 17.3 mph 26.5 mph N/A   Overcast
12:24 PM 75.0 °F 64.0 °F 69% 29.87 in 10.0 mi South 20.7 mph 26.5 mph N/A   Overcast
12:35 PM 73.9 °F 64.0 °F 71% 29.87 in 10.0 mi South 18.4 mph 24.2 mph N/A   Overcast
12:51 PM 73.0 °F 64.0 °F 73% 29.86 in 10.0 mi South 11.5 mph 21.9 mph N/A   Overcast
1:51 PM 72.0 °F 64.0 °F 76% 29.86 in 10.0 mi South 16.1 mph 23.0 mph 0.00 in Rain Light Rain
2:26 PM 73.0 °F 64.9 °F 76% 29.86 in 10.0 mi South 15.0 mph - 0.00 in   Overcast
2:51 PM 72.0 °F 66.0 °F 81% 29.85 in 6.0 mi South 15.0 mph - 0.00 in Rain Light Rain
3:32 PM 72.0 °F 64.9 °F 78% 29.85 in 10.0 mi South 12.7 mph - 0.00 in   Overcast
3:49 PM 71.6 °F 66.2 °F 83% 29.86 in 1.8 mi South 8.1 mph - 0.02 in Rain Heavy Rain
3:51 PM 71.1 °F 66.9 °F 87% 29.85 in 1.5 mi South 9.2 mph - 0.04 in Rain Rain
3:58 PM 71.1 °F 66.0 °F 84% 29.86 in 3.0 mi South 10.4 mph - 0.01 in Rain Light Rain
4:17 PM 72.0 °F 66.9 °F 84% 29.85 in 8.0 mi South 10.4 mph - 0.02 in Rain Light Rain
4:26 PM 72.0 °F 66.0 °F 81% 29.85 in 5.0 mi South 12.7 mph - 0.03 in Rain Light Rain
4:51 PM 71.1 °F 66.9 °F 87% 29.84 in 9.0 mi South 10.4 mph - 0.04 in   Overcast
5:05 PM 71.1 °F 66.9 °F 87% 29.85 in 5.0 mi South 10.4 mph - 0.00 in Rain Light Rain
5:37 PM 71.1 °F 66.9 °F 87% 29.86 in 1.8 mi SSW 9.2 mph - 0.03 in Rain Rain
5:51 PM 71.1 °F 66.9 °F 87% 29.85 in 0.8 mi South 8.1 mph - 0.15 in Rain Heavy Rain
6:00 PM 71.1 °F 66.9 °F 87% 29.85 in 2.0 mi SSE 8.1 mph - 0.05 in Rain Light Rain
6:08 PM 71.1 °F 68.0 °F 90% 29.84 in 6.0 mi SSE 8.1 mph - 0.05 in Rain Light Rain
6:51 PM 72.0 °F 68.0 °F 87% 29.84 in 7.0 mi South 11.5 mph - 0.05 in Rain Light Rain
7:23 PM 71.1 °F 68.0 °F 90% 29.85 in 2.0 mi South 9.2 mph - 0.01 in Rain Light Rain
7:32 PM 71.1 °F 68.0 °F 90% 29.85 in 1.0 mi South 9.2 mph - 0.07 in Rain Heavy Rain
7:48 PM 71.6 °F 68.0 °F 88% 29.85 in 3.0 mi South 8.1 mph - 0.11 in Rain Light Rain
7:49 PM 71.1 °F 68.0 °F 90% 29.84 in 3.0 mi SSE 8.1 mph - 0.11 in Rain Light Rain
8:51 PM 72.0 °F 68.0 °F 87% 29.86 in 10.0 mi South 11.5 mph - 0.02 in   Overcast
9:01 PM 72.0 °F 68.0 °F 87% 29.86 in 10.0 mi South 9.2 mph - N/A   Overcast
9:17 PM 72.0 °F 68.0 °F 87% 29.86 in 9.0 mi South 11.5 mph - N/A   Overcast
9:51 PM 72.0 °F 66.9 °F 84% 29.85 in 10.0 mi South 10.4 mph - N/A   Mostly Cloudy
10:51 PM 72.0 °F 66.9 °F 84% 29.85 in 10.0 mi South 11.5 mph - N/A   Overcast
11:51 PM 72.0 °F 66.9 °F 84% 29.85 in 10.0 mi South 9.2 mph - N/A   Mostly Cloudy